London, United Kingdom

2:26 AM BST on July 27, 2017 (GMT +0100)
Heathrow

Weather History for EGLL - June, 2012

Change the Weather History Date:

Tuesday, June 5, 2012

  Actual Average Record
Temperature  
Mean Temperature 51 °F -  
Max Temperature 58 °F 68 °F 80 °F (1997)
Min Temperature 44 °F 52 °F 44 °F (2012)
Degree Days  
Heating Degree Days 14    
Growing Degree Days 1 (Base 50)    
Moisture  
Dew Point 47 °F    
Average Humidity 81    
Maximum Humidity 94    
Minimum Humidity 50    
Precipitation  
Precipitation 0.24 in - - ()
Sea Level Pressure  
Sea Level Pressure 29.95 in    
Wind  
Wind Speed 6 mph ()    
Max Wind Speed 16 mph    
Max Gust Speed -    
Visibility 6.4 miles    
Events Rain    
Averages and records for this station are not official NWS values.
T = Trace of Precipitation, MM = Missing Value Source: Averaged Metar Reports

Daily Weather History Graph

Daily Weather History Graph

Search for Another Location

Airport or City:

Trip Planner

Search our weather history database for the weather conditions in past years. The results will help you decide how hot, cold, wet, or windy it might be!

Date:

Astronomy

Jun. 05, 2012 Rise Set
Actual Time 4:47 AM BST 9:13 PM BST
Civil Twilight 4:01 AM BST 10:00 PM BST
Nautical Twilight 2:51 AM BST 11:10 PM BST
Astronomical Twilight 1:32 AM BST 12:28 AM BST
Moon 10:20 PM BST (6/5) 5:45 AM BST (6/5)
Length of Visible Light 17h 58m
Length of Day
16h 26m
Full, 99% of the Moon is Illuminated
Jun 5
Full
Jun 11
Last Quarter
Jun 19
New
Jun 27
First Quarter
Jul 3
Full

Hourly Weather History & Observations

Time (BST) Temp. Windchill Dew Point Humidity Pressure Visibility Wind Dir Wind Speed Gust Speed Precip Events Conditions
12:20 AM 44.6 °F - 41.0 °F 87% 30.09 in - ESE 2.3 mph - N/A   Clear
12:50 AM 47 °F - 42 °F 76% 30.11 in 12 mi East 1.2 mph - -  
12:50 AM 44.6 °F - 41.0 °F 87% 30.09 in - East 2.3 mph - N/A   Clear
1:20 AM 44.6 °F - 41.0 °F 87% 30.09 in 6.2 mi ESE 2.3 mph - N/A   Unknown
1:50 AM 44.6 °F 43.1 °F 42.8 °F 93% 30.09 in 6.2 mi South 3.5 mph - N/A   Unknown
2:20 AM 44.6 °F - 41.0 °F 87% 30.06 in 6.2 mi South 2.3 mph - N/A   Unknown
2:50 AM 44.6 °F 42.2 °F 41.0 °F 87% 30.06 in 6.2 mi ESE 4.6 mph - N/A   Partly Cloudy
3:20 AM 44.6 °F 43.1 °F 41.0 °F 87% 30.06 in - East 3.5 mph - N/A   Clear
3:50 AM 46 °F - 42 °F 80% 30.08 in 11 mi ESE 2.3 mph - -   Mostly Cloudy
3:50 AM 44.6 °F - 41.0 °F 87% 30.06 in - Calm Calm - N/A   Clear
4:20 AM 46.4 °F - 41.0 °F 81% 30.06 in - Calm Calm - N/A   Clear
4:50 AM 46.4 °F - 42.8 °F 87% 30.06 in - Calm Calm - N/A   Clear
5:20 AM 46.4 °F 45.2 °F 42.8 °F 87% 30.06 in - SSE 3.5 mph - N/A   Clear
5:50 AM 46.4 °F 45.2 °F 42.8 °F 87% 30.06 in - SE 3.5 mph - N/A   Clear
6:20 AM 48.2 °F - 44.6 °F 87% 30.06 in - SE 4.6 mph - N/A   Clear
6:50 AM 49 °F - 44 °F 78% 30.05 in 11 mi SE 5.8 mph - -  
6:50 AM 48.2 °F - 44.6 °F 87% 30.04 in - SSE 5.8 mph - N/A   Clear
7:20 AM 50.0 °F - 44.6 °F 82% 30.04 in - SSE 4.6 mph - N/A   Clear
7:50 AM 51.8 °F - 46.4 °F 82% 30.04 in - SSE 8.1 mph - N/A   Clear
8:20 AM 53.6 °F - 46.4 °F 77% 30.04 in - SSE 9.2 mph - N/A   Clear
8:50 AM 53.6 °F - 46.4 °F 77% 30.04 in 6.2 mi SSE 10.4 mph - N/A   Partly Cloudy
9:20 AM 55.4 °F - 46.4 °F 72% 30.04 in 6.2 mi SSE 11.5 mph - N/A   Scattered Clouds
9:50 AM 57 °F - 46 °F 58% 30.02 in 12 mi SSE 11.5 mph - -   Partly Cloudy
9:50 AM 57.2 °F - 46.4 °F 67% 30.01 in 6.2 mi SSE 12.7 mph - N/A   Mostly Cloudy
10:20 AM 57.2 °F - 44.6 °F 63% 30.01 in 6.2 mi South 10.4 mph - N/A   Scattered Clouds
10:50 AM 57.2 °F - 44.6 °F 63% 30.01 in 6.2 mi South 12.7 mph - N/A   Mostly Cloudy
11:20 AM 57.2 °F - 44.6 °F 63% 30.01 in 6.2 mi South 13.8 mph - N/A   Mostly Cloudy
11:50 AM 57.2 °F - 44.6 °F 63% 29.98 in 6.2 mi South 13.8 mph - N/A   Mostly Cloudy
12:20 PM 59.0 °F - 44.6 °F 59% 29.98 in 6.2 mi South 13.8 mph - N/A   Mostly Cloudy
12:50 PM 58 °F - 44 °F 50% 29.98 in 11 mi South 15.0 mph - -   Scattered Clouds
12:50 PM 59.0 °F - 44.6 °F 59% 29.98 in 6.2 mi South 16.1 mph - N/A   Mostly Cloudy
1:20 PM 59.0 °F - 44.6 °F 59% 29.95 in 6.2 mi South 15.0 mph - N/A   Mostly Cloudy
1:50 PM 59.0 °F - 44.6 °F 59% 29.95 in 6.2 mi South 16.1 mph - N/A Rain Light Rain
2:20 PM 57.2 °F - 48.2 °F 72% 29.95 in 6.2 mi South 13.8 mph - N/A Rain Light Rain
2:50 PM 55.4 °F - 48.2 °F 77% 29.92 in 6.2 mi South 13.8 mph - N/A Rain Light Rain
3:20 PM 55.4 °F - 48.2 °F 77% 29.92 in 6.2 mi South 15.0 mph - N/A Rain Light Rain
3:50 PM 53 °F - 48 °F 77% 29.91 in 14 mi SSE 12.7 mph - - Rain Light Rain
3:50 PM 53.6 °F - 48.2 °F 82% 29.92 in 6.2 mi South 15.0 mph - N/A Rain Light Rain
4:20 PM 53.6 °F - 50.0 °F 88% 29.89 in 6.2 mi SSE 11.5 mph - N/A Rain Rain
4:50 PM 53.6 °F - 50.0 °F 88% 29.89 in 5.6 mi SSE 11.5 mph - N/A Rain Rain
5:20 PM 53.6 °F - 50.0 °F 88% 29.86 in 4.3 mi SSE 12.7 mph - N/A Rain Rain
5:50 PM 53.6 °F - 50.0 °F 88% 29.86 in 3.7 mi SSE 10.4 mph - N/A Rain Rain
6:20 PM 53.6 °F - 51.8 °F 94% 29.83 in 2.8 mi South 11.5 mph - N/A Rain Rain
6:50 PM 53 °F - 51 °F 92% 29.83 in 4 mi SSE 11.5 mph - - Rain Light Rain
6:50 PM 53.6 °F - 51.8 °F 94% 29.83 in 4.3 mi SSE 11.5 mph - N/A Rain Light Rain
7:20 PM 53.6 °F - 50.0 °F 88% 29.80 in 5.6 mi SE 11.5 mph - N/A Rain Light Rain
7:50 PM 53.6 °F - 51.8 °F 94% 29.80 in 6.2 mi SE 9.2 mph - N/A   Mostly Cloudy
8:20 PM 53.6 °F - 51.8 °F 94% 29.77 in 5.6 mi SE 9.2 mph - N/A Rain Light Rain
8:50 PM 53.6 °F - 51.8 °F 94% 29.74 in 4.3 mi SE 9.2 mph - N/A   Mostly Cloudy
9:20 PM 53.6 °F - 51.8 °F 94% 29.74 in 4.3 mi SSE 10.4 mph - N/A Rain Light Rain
9:50 PM 54 °F - 53 °F 94% 29.73 in 7 mi SSE 10.4 mph - - Rain Rain
9:50 PM 53.6 °F - 51.8 °F 94% 29.74 in 4.3 mi SSE 10.4 mph - N/A   Mostly Cloudy
10:20 PM 53.6 °F - 51.8 °F 94% 29.71 in 5.0 mi SSE 10.4 mph - N/A   Mostly Cloudy
10:50 PM 55.4 °F - 51.8 °F 88% 29.71 in 3.1 mi SSE 10.4 mph - N/A   Light Drizzle
11:20 PM 55.4 °F - 53.6 °F 94% 29.68 in 4.3 mi SSE 9.2 mph - N/A   Light Drizzle
11:50 PM 55.4 °F - 53.6 °F 94% 29.68 in 4.3 mi South 5.8 mph - N/A   Light Drizzle